Time,TemperatureF,DewpointF,PressureIn,WindDirection,WindDirectionDegrees,WindSpeedMPH,WindSpeedGustMPH,Humidity,HourlyPrecipIn,Conditions,Clouds,dailyrainin,SoftwareType,DateUTC
2013-03-08 00:04:00,28.6,27.6,24.89,NW,308,3.0,-999.0,96,-99.99,,,-99.99,dwt +perl,2013-03-08 08:04:00,
2013-03-08 00:09:00,28.6,27.6,24.89,NW,316,3.0,-999.0,96,-99.99,,,-99.99,dwt +perl,2013-03-08 08:09:00,
2013-03-08 00:14:00,28.6,27.6,24.89,NW,316,3.0,-999.0,96,-99.99,,,-99.99,dwt +perl,2013-03-08 08:14:00,
2013-03-08 00:19:00,28.6,27.6,24.89,NW,316,4.0,-999.0,96,-99.99,,,-99.99,dwt +perl,2013-03-08 08:19:00,
2013-03-08 00:24:00,28.6,27.6,24.88,NW,310,5.0,-999.0,96,-99.99,,,-99.99,dwt +perl,2013-03-08 08:24:00,
2013-03-08 00:29:00,28.6,27.6,24.88,NW,308,4.0,-999.0,96,-99.99,,,-99.99,dwt +perl,2013-03-08 08:29:00,
2013-03-08 00:34:00,28.5,27.5,24.88,NW,305,4.0,-999.0,96,-99.99,,,-99.99,dwt +perl,2013-03-08 08:34:00,
2013-03-08 00:39:00,28.5,27.5,24.88,NNW,330,6.0,-999.0,96,-99.99,,,-99.99,dwt +perl,2013-03-08 08:39:00,
2013-03-08 00:44:00,28.4,27.4,24.88,NNW,330,2.0,-999.0,96,-99.99,,,-99.99,dwt +perl,2013-03-08 08:44:00,
2013-03-08 00:49:00,28.4,27.4,24.87,NNW,337,1.0,-999.0,96,-99.99,,,-99.99,dwt +perl,2013-03-08 08:49:00,
2013-03-08 00:54:00,28.4,27.4,24.87,NNW,345,3.0,-999.0,96,-99.99,,,-99.99,dwt +perl,2013-03-08 08:54:00,
2013-03-08 00:59:00,28.4,27.4,24.88,North,4,2.0,-999.0,96,-99.99,,,-99.99,dwt +perl,2013-03-08 08:59:00,
2013-03-08 01:04:00,28.5,27.5,24.88,NNW,342,3.0,-999.0,96,-99.99,,,-99.99,dwt +perl,2013-03-08 09:04:00,
2013-03-08 01:09:00,28.6,27.6,24.87,NNW,337,2.0,-999.0,96,-99.99,,,-99.99,dwt +perl,2013-03-08 09:09:00,
2013-03-08 01:14:00,28.6,27.6,24.87,NNW,337,4.0,-999.0,96,-99.99,,,-99.99,dwt +perl,2013-03-08 09:14:00,
2013-03-08 01:19:00,28.7,27.7,24.87,NNE,27,3.0,-999.0,96,-99.99,,,-99.99,dwt +perl,2013-03-08 09:19:00,
2013-03-08 01:24:00,28.7,27.7,24.87,NNE,21,6.0,-999.0,96,-99.99,,,-99.99,dwt +perl,2013-03-08 09:24:00,
2013-03-08 01:29:00,28.6,27.6,24.87,NNE,30,5.0,-999.0,96,-99.99,,,-99.99,dwt +perl,2013-03-08 09:29:00,
2013-03-08 01:34:00,28.7,27.7,24.88,NNE,15,3.0,-999.0,96,-99.99,,,-99.99,dwt +perl,2013-03-08 09:34:00,
2013-03-08 01:39:00,28.8,27.8,24.87,NNE,25,6.0,-999.0,96,-99.99,,,-99.99,dwt +perl,2013-03-08 09:39:00,
2013-03-08 01:44:00,28.8,27.8,24.87,NNE,28,3.0,-999.0,96,-99.99,,,-99.99,dwt +perl,2013-03-08 09:44:00,
2013-03-08 01:49:00,28.9,27.9,24.87,NNE,22,4.0,-999.0,96,-99.99,,,-99.99,dwt +perl,2013-03-08 09:49:00,
2013-03-08 01:54:00,28.9,27.9,24.88,NNE,31,6.0,-999.0,96,-99.99,,,-99.99,dwt +perl,2013-03-08 09:54:00,
2013-03-08 01:59:00,29.1,28.1,24.88,NW,321,6.0,-999.0,96,-99.99,,,-99.99,dwt +perl,2013-03-08 09:59:00,
2013-03-08 02:04:00,29.0,28.0,24.88,NNW,327,3.0,-999.0,96,-99.99,,,-99.99,dwt +perl,2013-03-08 10:04:00,
2013-03-08 02:09:00,29.0,28.0,24.87,NNW,329,3.0,-999.0,96,-99.99,,,-99.99,dwt +perl,2013-03-08 10:09:00,
2013-03-08 02:14:00,29.1,28.1,24.87,NW,320,3.0,-999.0,96,-99.99,,,-99.99,dwt +perl,2013-03-08 10:14:00,
2013-03-08 02:19:00,29.1,28.1,24.87,NNW,341,3.0,-999.0,96,-99.99,,,-99.99,dwt +perl,2013-03-08 10:19:00,
2013-03-08 02:24:00,29.1,28.1,24.87,NW,310,3.0,-999.0,96,-99.99,,,-99.99,dwt +perl,2013-03-08 10:24:00,
2013-03-08 02:29:00,29.1,28.1,24.87,NNW,341,4.0,-999.0,96,-99.99,,,-99.99,dwt +perl,2013-03-08 10:29:00,
2013-03-08 02:34:00,29.1,28.4,24.87,WNW,289,3.0,-999.0,97,-99.99,,,-99.99,dwt +perl,2013-03-08 10:34:00,
2013-03-08 02:39:00,29.0,28.2,24.86,WNW,283,4.0,-999.0,97,-99.99,,,-99.99,dwt +perl,2013-03-08 10:39:00,
2013-03-08 02:44:00,29.0,28.2,24.86,WNW,293,5.0,-999.0,97,-99.99,,,-99.99,dwt +perl,2013-03-08 10:44:00,
2013-03-08 02:49:00,29.1,28.4,24.86,WNW,300,7.0,-999.0,97,-99.99,,,-99.99,dwt +perl,2013-03-08 10:49:00,
2013-03-08 02:54:00,29.2,28.5,24.86,NW,304,4.0,-999.0,97,-99.99,,,-99.99,dwt +perl,2013-03-08 10:54:00,
2013-03-08 02:59:00,29.2,28.5,24.86,NW,308,5.0,-999.0,97,-99.99,,,-99.99,dwt +perl,2013-03-08 10:59:00,
2013-03-08 03:04:00,29.2,28.5,24.86,NW,306,7.0,-999.0,97,-99.99,,,-99.99,dwt +perl,2013-03-08 11:04:00,
2013-03-08 03:09:00,29.3,28.5,24.86,NW,317,3.0,-999.0,97,-99.99,,,-99.99,dwt +perl,2013-03-08 11:09:00,
2013-03-08 03:14:00,29.3,28.5,24.86,NW,323,6.0,-999.0,97,-99.99,,,-99.99,dwt +perl,2013-03-08 11:14:00,
2013-03-08 03:19:00,29.3,28.5,24.86,WNW,303,0.0,-999.0,97,-99.99,,,-99.99,dwt +perl,2013-03-08 11:19:00,
2013-03-08 03:24:00,29.3,28.5,24.86,WNW,300,3.0,-999.0,97,-99.99,,,-99.99,dwt +perl,2013-03-08 11:24:00,
2013-03-08 03:29:00,29.2,28.5,24.86,WNW,283,0.0,-999.0,97,-99.99,,,-99.99,dwt +perl,2013-03-08 11:29:00,
2013-03-08 03:34:00,29.2,28.5,24.85,NW,314,5.0,-999.0,97,-99.99,,,-99.99,dwt +perl,2013-03-08 11:34:00,
2013-03-08 03:39:00,29.2,28.5,24.85,NW,312,7.0,-999.0,97,-99.99,,,-99.99,dwt +perl,2013-03-08 11:39:00,
2013-03-08 03:44:00,29.3,28.5,24.85,NW,309,4.0,-999.0,97,-99.99,,,-99.99,dwt +perl,2013-03-08 11:44:00,
2013-03-08 03:49:00,29.3,28.5,24.86,NW,318,4.0,-999.0,97,-99.99,,,-99.99,dwt +perl,2013-03-08 11:49:00,
2013-03-08 03:54:00,29.4,28.6,24.85,NW,319,3.0,-999.0,97,-99.99,,,-99.99,dwt +perl,2013-03-08 11:54:00,
2013-03-08 03:59:00,29.4,28.6,24.85,NW,311,4.0,-999.0,97,-99.99,,,-99.99,dwt +perl,2013-03-08 11:59:00,
2013-03-08 04:04:00,29.4,28.6,24.85,NW,311,6.0,-999.0,97,-99.99,,,-99.99,dwt +perl,2013-03-08 12:04:00,
2013-03-08 04:09:00,29.4,28.6,24.85,NW,304,2.0,-999.0,97,-99.99,,,-99.99,dwt +perl,2013-03-08 12:09:00,
2013-03-08 04:14:00,29.3,28.5,24.85,WNW,298,1.0,-999.0,97,-99.99,,,-99.99,dwt +perl,2013-03-08 12:14:00,
2013-03-08 04:19:00,29.0,28.2,24.85,West,277,3.0,-999.0,97,-99.99,,,-99.99,dwt +perl,2013-03-08 12:19:00,
2013-03-08 04:24:00,28.7,27.7,24.85,West,277,1.0,-999.0,96,-99.99,,,-99.99,dwt +perl,2013-03-08 12:24:00,
2013-03-08 04:29:00,28.7,27.7,24.85,West,276,2.0,-999.0,96,-99.99,,,-99.99,dwt +perl,2013-03-08 12:29:00,
2013-03-08 04:34:00,28.6,27.6,24.85,West,274,4.0,-999.0,96,-99.99,,,-99.99,dwt +perl,2013-03-08 12:34:00,
2013-03-08 04:39:00,28.8,27.8,24.85,WNW,291,9.0,-999.0,96,-99.99,,,-99.99,dwt +perl,2013-03-08 12:39:00,
2013-03-08 04:44:00,29.0,28.0,24.85,West,266,5.0,-999.0,96,-99.99,,,-99.99,dwt +perl,2013-03-08 12:44:00,
2013-03-08 04:49:00,29.1,28.4,24.85,WNW,290,6.0,-999.0,97,-99.99,,,-99.99,dwt +perl,2013-03-08 12:49:00,
2013-03-08 04:54:00,29.1,28.4,24.85,NW,316,8.0,-999.0,97,-99.99,,,-99.99,dwt +perl,2013-03-08 12:54:00,
2013-03-08 04:59:00,29.2,28.5,24.85,NW,305,4.0,-999.0,97,-99.99,,,-99.99,dwt +perl,2013-03-08 12:59:00,
2013-03-08 05:04:00,29.1,28.4,24.86,NW,321,4.0,-999.0,97,-99.99,,,-99.99,dwt +perl,2013-03-08 13:04:00,
2013-03-08 05:09:00,29.0,28.2,24.86,North,354,4.0,-999.0,97,-99.99,,,-99.99,dwt +perl,2013-03-08 13:09:00,
2013-03-08 05:14:00,28.9,28.1,24.86,NNE,18,4.0,-999.0,97,-99.99,,,-99.99,dwt +perl,2013-03-08 13:14:00,
2013-03-08 05:19:00,29.0,28.2,24.86,NW,324,6.0,-999.0,97,-99.99,,,-99.99,dwt +perl,2013-03-08 13:19:00,
2013-03-08 05:24:00,29.1,28.4,24.86,NNW,340,5.0,-999.0,97,-99.99,,,-99.99,dwt +perl,2013-03-08 13:24:00,
2013-03-08 05:29:00,29.2,28.5,24.87,NNW,337,5.0,-999.0,97,-99.99,,,-99.99,dwt +perl,2013-03-08 13:29:00,
2013-03-08 05:34:00,29.4,28.6,24.87,NNW,330,3.0,-999.0,97,-99.99,,,-99.99,dwt +perl,2013-03-08 13:34:00,
2013-03-08 05:39:00,29.5,28.8,24.87,NNE,32,5.0,-999.0,97,-99.99,,,-99.99,dwt +perl,2013-03-08 13:39:00,
2013-03-08 05:44:00,29.6,28.9,24.87,NNE,24,3.0,-999.0,97,-99.99,,,-99.99,dwt +perl,2013-03-08 13:44:00,
2013-03-08 05:49:00,29.6,28.9,24.87,NNE,25,3.0,-999.0,97,-99.99,,,-99.99,dwt +perl,2013-03-08 13:49:00,
2013-03-08 05:54:00,29.5,28.8,24.87,NNE,21,4.0,-999.0,97,-99.99,,,-99.99,dwt +perl,2013-03-08 13:54:00,
2013-03-08 05:59:00,29.5,28.8,24.87,NW,320,4.0,-999.0,97,-99.99,,,-99.99,dwt +perl,2013-03-08 13:59:00,
2013-03-08 06:04:00,29.5,28.8,24.87,NW,312,6.0,-999.0,97,-99.99,,,-99.99,dwt +perl,2013-03-08 14:04:00,
2013-03-08 06:09:00,29.4,28.6,24.87,NNW,348,6.0,-999.0,97,-99.99,,,-99.99,dwt +perl,2013-03-08 14:09:00,
2013-03-08 06:14:00,29.4,28.6,24.87,North,4,7.0,-999.0,97,-99.99,,,-99.99,dwt +perl,2013-03-08 14:14:00,
2013-03-08 06:19:00,29.4,28.6,24.87,NNE,13,6.0,-999.0,97,-99.99,,,-99.99,dwt +perl,2013-03-08 14:19:00,
2013-03-08 06:24:00,29.4,28.6,24.87,North,359,8.0,-999.0,97,-99.99,,,-99.99,dwt +perl,2013-03-08 14:24:00,
2013-03-08 06:34:00,29.4,28.6,24.87,North,354,6.0,-999.0,97,-99.99,,,-99.99,dwt +perl,2013-03-08 14:34:00,
2013-03-08 06:39:00,29.3,28.5,24.88,NE,35,5.0,-999.0,97,-99.99,,,-99.99,dwt +perl,2013-03-08 14:39:00,
2013-03-08 06:44:00,29.3,28.5,24.88,NE,40,9.0,-999.0,97,-99.99,,,-99.99,dwt +perl,2013-03-08 14:44:00,
2013-03-08 06:49:00,29.3,28.5,24.88,NNE,27,8.0,-999.0,97,-99.99,,,-99.99,dwt +perl,2013-03-08 14:49:00,
2013-03-08 06:54:00,29.2,28.5,24.88,North,359,7.0,-999.0,97,-99.99,,,-99.99,dwt +perl,2013-03-08 14:54:00,
2013-03-08 06:59:00,29.2,28.5,24.89,North,11,10.0,-999.0,97,-99.99,,,-99.99,dwt +perl,2013-03-08 14:59:00,
2013-03-08 07:04:00,29.2,28.5,24.89,NE,35,4.0,-999.0,97,-99.99,,,-99.99,dwt +perl,2013-03-08 15:04:00,
2013-03-08 07:09:00,29.2,28.5,24.89,North,9,3.0,-999.0,97,-99.99,,,-99.99,dwt +perl,2013-03-08 15:09:00,
2013-03-08 07:14:00,29.2,28.5,24.90,NNW,342,2.0,-999.0,97,-99.99,,,-99.99,dwt +perl,2013-03-08 15:14:00,
2013-03-08 07:24:00,29.3,28.5,24.90,NE,45,6.0,-999.0,97,-99.99,,,-99.99,dwt +perl,2013-03-08 15:24:00,
2013-03-08 07:29:00,29.4,28.6,24.90,NNE,29,5.0,-999.0,97,-99.99,,,-99.99,dwt +perl,2013-03-08 15:29:00,
2013-03-08 07:34:00,29.6,28.9,24.90,NNE,33,5.0,-999.0,97,-99.99,,,-99.99,dwt +perl,2013-03-08 15:34:00,
2013-03-08 07:39:00,29.7,29.0,24.90,NNE,19,5.0,-999.0,97,-99.99,,,-99.99,dwt +perl,2013-03-08 15:39:00,
2013-03-08 07:44:00,29.8,29.0,24.91,NE,35,6.0,-999.0,97,-99.99,,,-99.99,dwt +perl,2013-03-08 15:44:00,
2013-03-08 07:49:00,29.9,29.1,24.91,North,4,4.0,-999.0,97,-99.99,,,-99.99,dwt +perl,2013-03-08 15:49:00,
2013-03-08 07:54:00,30.1,29.4,24.91,NE,41,4.0,-999.0,97,-99.99,,,-99.99,dwt +perl,2013-03-08 15:54:00,
2013-03-08 07:59:00,30.2,29.5,24.92,NW,323,7.0,-999.0,97,-99.99,,,-99.99,dwt +perl,2013-03-08 15:59:00,
2013-03-08 08:04:00,30.3,29.5,24.92,NNE,31,4.0,-999.0,97,-99.99,,,-99.99,dwt +perl,2013-03-08 16:04:00,
2013-03-08 08:09:00,30.5,29.8,24.92,North,354,13.0,-999.0,97,-99.99,,,-99.99,dwt +perl,2013-03-08 16:09:00,
2013-03-08 08:14:00,30.6,29.9,24.92,NNE,28,5.0,-999.0,97,-99.99,,,-99.99,dwt +perl,2013-03-08 16:14:00,
2013-03-08 08:19:00,30.6,29.9,24.93,North,354,7.0,-999.0,97,-99.99,,,-99.99,dwt +perl,2013-03-08 16:19:00,
2013-03-08 08:24:00,30.7,30.0,24.93,NW,316,9.0,-999.0,97,-99.99,,,-99.99,dwt +perl,2013-03-08 16:24:00,
2013-03-08 08:29:00,30.7,30.0,24.93,NNW,327,5.0,-999.0,97,-99.99,,,-99.99,dwt +perl,2013-03-08 16:29:00,
2013-03-08 08:39:00,30.8,30.0,24.93,NNW,331,10.0,-999.0,97,-99.99,,,-99.99,dwt +perl,2013-03-08 16:39:00,
2013-03-08 08:44:00,30.7,30.0,24.94,NNW,336,7.0,-999.0,97,-99.99,,,-99.99,dwt +perl,2013-03-08 16:44:00,
2013-03-08 08:49:00,30.6,29.9,24.94,NW,320,11.0,-999.0,97,-99.99,,,-99.99,dwt +perl,2013-03-08 16:49:00,
2013-03-08 08:54:00,30.6,29.9,24.94,NNW,343,4.0,-999.0,97,-99.99,,,-99.99,dwt +perl,2013-03-08 16:54:00,
2013-03-08 08:59:00,30.6,29.9,24.95,SW,236,4.0,-999.0,97,-99.99,,,-99.99,dwt +perl,2013-03-08 16:59:00,
2013-03-08 09:04:00,30.4,29.6,24.95,NW,305,8.0,-999.0,97,-99.99,,,-99.99,dwt +perl,2013-03-08 17:04:00,
2013-03-08 09:09:00,30.1,29.4,24.95,NW,312,4.0,-999.0,97,-99.99,,,-99.99,dwt +perl,2013-03-08 17:09:00,
2013-03-08 09:14:00,30.0,29.2,24.95,WNW,295,9.0,-999.0,97,-99.99,,,-99.99,dwt +perl,2013-03-08 17:14:00,
2013-03-08 09:19:00,29.9,29.1,24.95,NW,319,8.0,-999.0,97,-99.99,,,-99.99,dwt +perl,2013-03-08 17:19:00,
2013-03-08 09:24:00,29.9,29.1,24.95,WNW,287,8.0,-999.0,97,-99.99,,,-99.99,dwt +perl,2013-03-08 17:24:00,
2013-03-08 09:29:00,30.1,29.4,24.95,NNW,335,8.0,-999.0,97,-99.99,,,-99.99,dwt +perl,2013-03-08 17:29:00,
2013-03-08 09:39:00,29.8,29.0,24.96,NNW,328,5.0,-999.0,97,-99.99,,,-99.99,dwt +perl,2013-03-08 17:39:00,
2013-03-08 09:49:00,29.8,29.0,24.96,WNW,301,4.0,-999.0,97,-99.99,,,-99.99,dwt +perl,2013-03-08 17:49:00,
2013-03-08 09:54:00,30.0,29.2,24.96,NW,309,5.0,-999.0,97,-99.99,,,-99.99,dwt +perl,2013-03-08 17:54:00,
2013-03-08 10:04:00,30.2,29.5,24.96,West,272,7.0,-999.0,97,-99.99,,,-99.99,dwt +perl,2013-03-08 18:04:00,
2013-03-08 10:09:00,30.0,29.2,24.96,WNW,289,12.0,-999.0,97,-99.99,,,-99.99,dwt +perl,2013-03-08 18:09:00,
2013-03-08 10:14:00,30.2,29.5,24.96,SW,224,6.0,-999.0,97,-99.99,,,-99.99,dwt +perl,2013-03-08 18:14:00,
2013-03-08 10:19:00,30.5,29.8,24.96,West,272,9.0,-999.0,97,-99.99,,,-99.99,dwt +perl,2013-03-08 18:19:00,
2013-03-08 10:24:00,30.5,29.8,24.96,NW,305,8.0,-999.0,97,-99.99,,,-99.99,dwt +perl,2013-03-08 18:24:00,
2013-03-08 10:29:00,30.8,30.0,24.96,West,278,8.0,-999.0,97,-99.99,,,-99.99,dwt +perl,2013-03-08 18:29:00,
2013-03-08 10:34:00,30.8,29.8,24.97,WSW,237,9.0,-999.0,96,-99.99,,,-99.99,dwt +perl,2013-03-08 18:34:00,
2013-03-08 10:39:00,30.9,30.1,24.97,West,274,9.0,-999.0,97,-99.99,,,-99.99,dwt +perl,2013-03-08 18:39:00,
2013-03-08 10:44:00,31.2,30.4,24.97,West,272,16.0,-999.0,97,-99.99,,,-99.99,dwt +perl,2013-03-08 18:44:00,
2013-03-08 10:49:00,31.4,30.6,24.97,WSW,248,6.0,-999.0,97,-99.99,,,-99.99,dwt +perl,2013-03-08 18:49:00,
2013-03-08 10:54:00,31.5,30.7,24.97,West,269,10.0,-999.0,97,-99.99,,,-99.99,dwt +perl,2013-03-08 18:54:00,
2013-03-08 10:59:00,31.6,30.8,24.98,WNW,295,23.0,-999.0,97,-99.99,,,-99.99,dwt +perl,2013-03-08 18:59:00,
2013-03-08 11:04:00,31.4,30.6,24.97,West,266,19.0,-999.0,97,-99.99,,,-99.99,dwt +perl,2013-03-08 19:04:00,
2013-03-08 11:14:00,31.4,30.6,24.98,WSW,256,10.0,-999.0,97,-99.99,,,-99.99,dwt +perl,2013-03-08 19:14:00,
2013-03-08 11:19:00,31.4,30.6,24.98,WSW,254,13.0,-999.0,97,-99.99,,,-99.99,dwt +perl,2013-03-08 19:19:00,
2013-03-08 11:24:00,31.4,30.6,24.98,West,280,12.0,-999.0,97,-99.99,,,-99.99,dwt +perl,2013-03-08 19:24:00,
2013-03-08 11:29:00,31.5,30.7,24.98,WNW,291,9.0,-999.0,97,-99.99,,,-99.99,dwt +perl,2013-03-08 19:29:00,
2013-03-08 11:34:00,31.7,30.9,24.99,WNW,299,9.0,-999.0,97,-99.99,,,-99.99,dwt +perl,2013-03-08 19:34:00,
2013-03-08 11:39:00,31.9,31.1,24.99,West,267,7.0,-999.0,97,-99.99,,,-99.99,dwt +perl,2013-03-08 19:39:00,
2013-03-08 11:44:00,32.0,31.2,24.99,NW,310,15.0,-999.0,97,-99.99,,,-99.99,dwt +perl,2013-03-08 19:44:00,
2013-03-08 11:54:00,32.1,31.3,24.99,West,275,11.0,-999.0,97,-99.99,,,-99.99,dwt +perl,2013-03-08 19:54:00,
2013-03-08 11:59:00,32.4,31.6,24.99,West,270,13.0,-999.0,97,-99.99,,,-99.99,dwt +perl,2013-03-08 19:59:00,
2013-03-08 12:04:00,32.5,31.7,24.99,WSW,241,7.0,-999.0,97,-99.99,,,-99.99,dwt +perl,2013-03-08 20:04:00,
2013-03-08 12:09:00,32.6,31.8,24.99,WSW,239,16.0,-999.0,97,-99.99,,,-99.99,dwt +perl,2013-03-08 20:09:00,
2013-03-08 12:14:00,32.5,31.7,24.99,WSW,245,15.0,-999.0,97,-99.99,,,-99.99,dwt +perl,2013-03-08 20:14:00,
2013-03-08 12:24:00,33.1,32.3,24.99,WSW,237,15.0,-999.0,97,-99.99,,,-99.99,dwt +perl,2013-03-08 20:24:00,
2013-03-08 12:34:00,33.2,32.4,24.99,SW,234,14.0,-999.0,97,-99.99,,,-99.99,dwt +perl,2013-03-08 20:34:00,
2013-03-08 12:39:00,33.2,32.4,24.99,WSW,240,6.0,-999.0,97,-99.99,,,-99.99,dwt +perl,2013-03-08 20:39:00,
2013-03-08 12:44:00,32.8,32.0,24.99,WSW,251,8.0,-999.0,97,-99.99,,,-99.99,dwt +perl,2013-03-08 20:44:00,
2013-03-08 12:49:00,32.5,31.7,24.99,WSW,253,9.0,-999.0,97,-99.99,,,-99.99,dwt +perl,2013-03-08 20:49:00,
2013-03-08 12:54:00,32.6,31.8,24.99,WSW,241,10.0,-999.0,97,-99.99,,,-99.99,dwt +perl,2013-03-08 20:54:00,
2013-03-08 12:59:00,32.6,31.8,24.99,WSW,239,14.0,-999.0,97,-99.99,,,-99.99,dwt +perl,2013-03-08 20:59:00,
2013-03-08 13:04:00,32.9,32.1,24.99,West,259,6.0,-999.0,97,-99.99,,,-99.99,dwt +perl,2013-03-08 21:04:00,
2013-03-08 13:09:00,34.0,33.2,24.99,WSW,242,16.0,-999.0,97,-99.99,,,-99.99,dwt +perl,2013-03-08 21:09:00,
2013-03-08 13:14:00,34.8,34.0,24.99,WNW,287,12.0,-999.0,97,-99.99,,,-99.99,dwt +perl,2013-03-08 21:14:00,
2013-03-08 13:19:00,34.2,33.2,24.99,WSW,241,10.0,-999.0,96,-99.99,,,-99.99,dwt +perl,2013-03-08 21:19:00,
2013-03-08 13:24:00,34.4,33.4,24.99,WNW,297,8.0,-999.0,96,-99.99,,,-99.99,dwt +perl,2013-03-08 21:24:00,
2013-03-08 13:29:00,34.2,32.9,24.98,West,278,9.0,-999.0,95,-99.99,,,-99.99,dwt +perl,2013-03-08 21:29:00,
2013-03-08 13:34:00,33.8,32.5,24.99,WSW,238,9.0,-999.0,95,-99.99,,,-99.99,dwt +perl,2013-03-08 21:34:00,
2013-03-08 13:39:00,33.7,32.7,24.98,West,268,12.0,-999.0,96,-99.99,,,-99.99,dwt +perl,2013-03-08 21:39:00,
2013-03-08 13:44:00,33.6,32.6,24.99,SW,235,14.0,-999.0,96,-99.99,,,-99.99,dwt +perl,2013-03-08 21:44:00,
2013-03-08 13:49:00,32.9,31.9,24.98,West,279,7.0,-999.0,96,-99.99,,,-99.99,dwt +perl,2013-03-08 21:49:00,
2013-03-08 13:54:00,33.3,32.3,24.98,West,261,15.0,-999.0,96,-99.99,,,-99.99,dwt +perl,2013-03-08 21:54:00,
2013-03-08 13:59:00,33.7,32.7,24.98,West,270,10.0,-999.0,96,-99.99,,,-99.99,dwt +perl,2013-03-08 21:59:00,
2013-03-08 14:04:00,33.0,31.7,24.98,WNW,283,15.0,-999.0,95,-99.99,,,-99.99,dwt +perl,2013-03-08 22:04:00,
2013-03-08 14:09:00,33.4,31.9,24.98,WSW,252,14.0,-999.0,94,-99.99,,,-99.99,dwt +perl,2013-03-08 22:09:00,
2013-03-08 14:14:00,33.3,31.5,24.98,SW,221,21.0,-999.0,93,-99.99,,,-99.99,dwt +perl,2013-03-08 22:14:00,
2013-03-08 14:19:00,33.6,31.5,24.98,West,268,17.0,-999.0,92,-99.99,,,-99.99,dwt +perl,2013-03-08 22:19:00,
2013-03-08 14:24:00,33.3,31.2,24.98,SW,221,19.0,-999.0,92,-99.99,,,-99.99,dwt +perl,2013-03-08 22:24:00,
2013-03-08 14:29:00,33.2,31.4,24.98,West,279,12.0,-999.0,93,-99.99,,,-99.99,dwt +perl,2013-03-08 22:29:00,
2013-03-08 14:34:00,34.2,32.4,24.98,West,259,13.0,-999.0,93,-99.99,,,-99.99,dwt +perl,2013-03-08 22:34:00,
2013-03-08 14:39:00,33.8,31.2,24.98,WSW,241,11.0,-999.0,90,-99.99,,,-99.99,dwt +perl,2013-03-08 22:39:00,
2013-03-08 14:44:00,33.6,31.0,24.99,West,266,19.0,-999.0,90,-99.99,,,-99.99,dwt +perl,2013-03-08 22:44:00,
2013-03-08 14:54:00,33.8,30.6,24.99,SW,236,17.0,-999.0,88,-99.99,,,-99.99,dwt +perl,2013-03-08 22:54:00,
2013-03-08 14:59:00,33.2,30.6,24.99,West,268,12.0,-999.0,90,-99.99,,,-99.99,dwt +perl,2013-03-08 22:59:00,
2013-03-08 15:04:00,32.8,30.2,24.99,WSW,249,20.0,-999.0,90,-99.99,,,-99.99,dwt +perl,2013-03-08 23:04:00,
2013-03-08 15:09:00,32.3,29.4,24.99,West,266,17.0,-999.0,89,-99.99,,,-99.99,dwt +perl,2013-03-08 23:09:00,
2013-03-08 15:14:00,32.1,29.2,24.99,WSW,239,17.0,-999.0,89,-99.99,,,-99.99,dwt +perl,2013-03-08 23:14:00,
2013-03-08 15:19:00,32.3,29.4,24.99,WSW,256,24.0,-999.0,89,-99.99,,,-99.99,dwt +perl,2013-03-08 23:19:00,
2013-03-08 15:24:00,32.2,29.0,24.99,West,277,16.0,-999.0,88,-99.99,,,-99.99,dwt +perl,2013-03-08 23:24:00,
2013-03-08 15:29:00,32.1,28.4,25.00,West,280,10.0,-999.0,86,-99.99,,,-99.99,dwt +perl,2013-03-08 23:29:00,
2013-03-08 15:34:00,32.2,28.5,25.00,WSW,258,10.0,-999.0,86,-99.99,,,-99.99,dwt +perl,2013-03-08 23:34:00,
2013-03-08 15:39:00,32.8,28.8,25.00,West,274,22.0,-999.0,85,-99.99,,,-99.99,dwt +perl,2013-03-08 23:39:00,
2013-03-08 15:44:00,33.2,28.9,25.00,West,262,10.0,-999.0,84,-99.99,,,-99.99,dwt +perl,2013-03-08 23:44:00,
2013-03-08 15:49:00,33.7,29.7,25.00,WSW,251,11.0,-999.0,85,-99.99,,,-99.99,dwt +perl,2013-03-08 23:49:00,
2013-03-08 15:54:00,33.5,30.0,25.00,West,274,17.0,-999.0,87,-99.99,,,-99.99,dwt +perl,2013-03-08 23:54:00,
2013-03-08 15:59:00,33.2,29.2,25.00,West,281,13.0,-999.0,85,-99.99,,,-99.99,dwt +perl,2013-03-08 23:59:00,
2013-03-08 16:04:00,33.3,28.7,25.01,SW,231,11.0,-999.0,83,-99.99,,,-99.99,dwt +perl,2013-03-09 00:04:00,
2013-03-08 16:09:00,33.2,29.2,25.00,West,267,13.0,-999.0,85,-99.99,,,-99.99,dwt +perl,2013-03-09 00:09:00,
2013-03-08 16:14:00,33.2,29.8,25.00,WSW,242,15.0,-999.0,87,-99.99,,,-99.99,dwt +perl,2013-03-09 00:14:00,
2013-03-08 16:19:00,33.1,29.4,25.00,West,270,13.0,-999.0,86,-99.99,,,-99.99,dwt +perl,2013-03-09 00:19:00,
2013-03-08 16:24:00,33.1,29.4,25.01,WSW,246,17.0,-999.0,86,-99.99,,,-99.99,dwt +perl,2013-03-09 00:24:00,
2013-03-08 16:29:00,32.4,29.5,25.01,WSW,246,12.0,-999.0,89,-99.99,,,-99.99,dwt +perl,2013-03-09 00:29:00,
2013-03-08 16:34:00,32.5,30.2,25.01,SW,225,13.0,-999.0,91,-99.99,,,-99.99,dwt +perl,2013-03-09 00:34:00,
2013-03-08 16:39:00,31.5,28.9,25.01,West,268,20.0,-999.0,90,-99.99,,,-99.99,dwt +perl,2013-03-09 00:39:00,
2013-03-08 16:44:00,31.3,29.8,25.01,WNW,292,18.0,-999.0,94,-99.99,,,-99.99,dwt +perl,2013-03-09 00:44:00,
2013-03-08 16:49:00,31.2,29.4,25.01,SW,231,16.0,-999.0,93,-99.99,,,-99.99,dwt +perl,2013-03-09 00:49:00,
2013-03-08 16:54:00,31.2,29.7,25.01,WSW,242,16.0,-999.0,94,-99.99,,,-99.99,dwt +perl,2013-03-09 00:54:00,
2013-03-08 16:59:00,31.4,28.8,25.01,SW,226,22.0,-999.0,90,-99.99,,,-99.99,dwt +perl,2013-03-09 00:59:00,
2013-03-08 17:04:00,30.6,28.5,25.01,West,278,20.0,-999.0,92,-99.99,,,-99.99,dwt +perl,2013-03-09 01:04:00,
2013-03-08 17:09:00,29.7,28.2,25.01,West,269,24.0,-999.0,94,-99.99,,,-99.99,dwt +perl,2013-03-09 01:09:00,
2013-03-08 17:14:00,29.3,27.8,25.01,WNW,285,13.0,-999.0,94,-99.99,,,-99.99,dwt +perl,2013-03-09 01:14:00,
2013-03-08 17:19:00,28.9,27.6,25.01,WSW,240,16.0,-999.0,95,-99.99,,,-99.99,dwt +perl,2013-03-09 01:19:00,
2013-03-08 17:24:00,28.6,27.4,25.02,WSW,251,13.0,-999.0,95,-99.99,,,-99.99,dwt +perl,2013-03-09 01:24:00,
2013-03-08 17:29:00,28.5,27.5,25.02,WSW,243,18.0,-999.0,96,-99.99,,,-99.99,dwt +perl,2013-03-09 01:29:00,
2013-03-08 17:34:00,28.5,27.5,25.02,WNW,287,19.0,-999.0,96,-99.99,,,-99.99,dwt +perl,2013-03-09 01:34:00,
2013-03-08 17:39:00,28.1,27.1,25.02,West,280,25.0,-999.0,96,-99.99,,,-99.99,dwt +perl,2013-03-09 01:39:00,
2013-03-08 17:44:00,27.9,26.9,25.02,West,277,17.0,-999.0,96,-99.99,,,-99.99,dwt +perl,2013-03-09 01:44:00,
2013-03-08 17:49:00,27.8,26.8,25.02,West,262,23.0,-999.0,96,-99.99,,,-99.99,dwt +perl,2013-03-09 01:49:00,
2013-03-08 17:54:00,27.9,26.9,25.03,WSW,254,24.0,-999.0,96,-99.99,,,-99.99,dwt +perl,2013-03-09 01:54:00,
2013-03-08 17:59:00,28.1,27.1,25.03,WSW,252,13.0,-999.0,96,-99.99,,,-99.99,dwt +perl,2013-03-09 01:59:00,
2013-03-08 18:04:00,27.8,26.8,25.03,WSW,242,22.0,-999.0,96,-99.99,,,-99.99,dwt +perl,2013-03-09 02:04:00,
2013-03-08 18:09:00,27.6,26.6,25.03,WSW,258,18.0,-999.0,96,-99.99,,,-99.99,dwt +perl,2013-03-09 02:09:00,
2013-03-08 18:14:00,27.5,26.5,25.03,WSW,237,21.0,-999.0,96,-99.99,,,-99.99,dwt +perl,2013-03-09 02:14:00,
2013-03-08 18:19:00,27.7,26.7,25.03,SW,233,25.0,-999.0,96,-99.99,,,-99.99,dwt +perl,2013-03-09 02:19:00,
2013-03-08 18:24:00,27.7,26.7,25.03,West,270,13.0,-999.0,96,-99.99,,,-99.99,dwt +perl,2013-03-09 02:24:00,
2013-03-08 18:29:00,27.8,26.8,25.03,West,264,23.0,-999.0,96,-99.99,,,-99.99,dwt +perl,2013-03-09 02:29:00,
2013-03-08 18:34:00,27.7,26.7,25.04,WSW,239,19.0,-999.0,96,-99.99,,,-99.99,dwt +perl,2013-03-09 02:34:00,
2013-03-08 18:39:00,27.8,26.8,25.05,WSW,237,19.0,-999.0,96,-99.99,,,-99.99,dwt +perl,2013-03-09 02:39:00,
2013-03-08 18:44:00,27.8,26.8,25.04,WSW,254,22.0,-999.0,96,-99.99,,,-99.99,dwt +perl,2013-03-09 02:44:00,
2013-03-08 18:49:00,27.6,26.6,25.04,SW,230,13.0,-999.0,96,-99.99,,,-99.99,dwt +perl,2013-03-09 02:49:00,
2013-03-08 18:54:00,27.6,26.9,25.04,West,268,18.0,-999.0,97,-99.99,,,-99.99,dwt +perl,2013-03-09 02:54:00,
2013-03-08 18:59:00,27.9,26.9,25.05,West,277,16.0,-999.0,96,-99.99,,,-99.99,dwt +perl,2013-03-09 02:59:00,
2013-03-08 19:04:00,28.1,27.4,25.05,WNW,285,15.0,-999.0,97,-99.99,,,-99.99,dwt +perl,2013-03-09 03:04:00,
2013-03-08 19:09:00,28.1,27.4,25.05,West,268,19.0,-999.0,97,-99.99,,,-99.99,dwt +perl,2013-03-09 03:09:00,
2013-03-08 19:14:00,28.0,27.3,25.05,WSW,249,20.0,-999.0,97,-99.99,,,-99.99,dwt +perl,2013-03-09 03:14:00,
2013-03-08 19:19:00,27.9,27.2,25.05,WSW,240,15.0,-999.0,97,-99.99,,,-99.99,dwt +perl,2013-03-09 03:19:00,
2013-03-08 19:24:00,28.0,27.3,25.05,West,272,14.0,-999.0,97,-99.99,,,-99.99,dwt +perl,2013-03-09 03:24:00,
2013-03-08 19:29:00,28.3,27.5,25.06,WSW,237,20.0,-999.0,97,-99.99,,,-99.99,dwt +perl,2013-03-09 03:29:00,
2013-03-08 19:34:00,28.0,27.3,25.06,WNW,289,23.0,-999.0,97,-99.99,,,-99.99,dwt +perl,2013-03-09 03:34:00,
2013-03-08 19:39:00,28.0,27.3,25.06,WSW,245,18.0,-999.0,97,-99.99,,,-99.99,dwt +perl,2013-03-09 03:39:00,
2013-03-08 19:44:00,27.9,27.2,25.06,WNW,291,24.0,-999.0,97,-99.99,,,-99.99,dwt +perl,2013-03-09 03:44:00,
2013-03-08 19:49:00,27.9,27.2,25.06,WSW,251,15.0,-999.0,97,-99.99,,,-99.99,dwt +perl,2013-03-09 03:49:00,
2013-03-08 19:54:00,28.1,27.4,25.07,West,278,12.0,-999.0,97,-99.99,,,-99.99,dwt +perl,2013-03-09 03:54:00,
2013-03-08 19:59:00,28.2,27.5,25.07,WNW,285,22.0,-999.0,97,-99.99,,,-99.99,dwt +perl,2013-03-09 03:59:00,
2013-03-08 20:04:00,28.0,27.3,25.06,West,272,18.0,-999.0,97,-99.99,,,-99.99,dwt +perl,2013-03-09 04:04:00,
2013-03-08 20:09:00,28.0,27.3,25.07,West,268,14.0,-999.0,97,-99.99,,,-99.99,dwt +perl,2013-03-09 04:09:00,
2013-03-08 20:14:00,28.2,27.5,25.07,WSW,254,12.0,-999.0,97,-99.99,,,-99.99,dwt +perl,2013-03-09 04:14:00,
2013-03-08 20:19:00,28.2,27.5,25.07,West,266,15.0,-999.0,97,-99.99,,,-99.99,dwt +perl,2013-03-09 04:19:00,
2013-03-08 20:24:00,28.0,27.3,25.07,West,265,10.0,-999.0,97,-99.99,,,-99.99,dwt +perl,2013-03-09 04:24:00,
2013-03-08 20:29:00,27.9,26.9,25.07,West,280,12.0,-999.0,96,-99.99,,,-99.99,dwt +perl,2013-03-09 04:29:00,
2013-03-08 20:34:00,27.6,26.9,25.07,West,280,15.0,-999.0,97,-99.99,,,-99.99,dwt +perl,2013-03-09 04:34:00,
2013-03-08 20:39:00,27.7,27.0,25.07,WSW,243,20.0,-999.0,97,-99.99,,,-99.99,dwt +perl,2013-03-09 04:39:00,
2013-03-08 20:44:00,27.8,26.8,25.07,WSW,240,18.0,-999.0,96,-99.99,,,-99.99,dwt +perl,2013-03-09 04:44:00,
2013-03-08 20:49:00,28.0,27.0,25.07,WSW,253,20.0,-999.0,96,-99.99,,,-99.99,dwt +perl,2013-03-09 04:49:00,
2013-03-08 20:54:00,28.1,27.4,25.07,WSW,249,21.0,-999.0,97,-99.99,,,-99.99,dwt +perl,2013-03-09 04:54:00,
2013-03-08 20:59:00,28.1,27.4,25.07,WSW,248,17.0,-999.0,97,-99.99,,,-99.99,dwt +perl,2013-03-09 04:59:00,
2013-03-08 21:04:00,28.1,27.4,25.07,WSW,257,17.0,-999.0,97,-99.99,,,-99.99,dwt +perl,2013-03-09 05:04:00,
2013-03-08 21:09:00,28.2,27.5,25.07,West,275,23.0,-999.0,97,-99.99,,,-99.99,dwt +perl,2013-03-09 05:09:00,
2013-03-08 21:14:00,28.4,27.6,25.08,West,265,13.0,-999.0,97,-99.99,,,-99.99,dwt +perl,2013-03-09 05:14:00,
2013-03-08 21:19:00,28.1,27.4,25.08,WSW,246,12.0,-999.0,97,-99.99,,,-99.99,dwt +perl,2013-03-09 05:19:00,
2013-03-08 21:24:00,27.8,26.8,25.08,WSW,253,18.0,-999.0,96,-99.99,,,-99.99,dwt +perl,2013-03-09 05:24:00,
2013-03-08 21:29:00,28.0,27.0,25.08,West,276,21.0,-999.0,96,-99.99,,,-99.99,dwt +perl,2013-03-09 05:29:00,
2013-03-08 21:34:00,28.2,27.5,25.08,SW,236,14.0,-999.0,97,-99.99,,,-99.99,dwt +perl,2013-03-09 05:34:00,
2013-03-08 21:39:00,28.4,27.6,25.08,WSW,238,22.0,-999.0,97,-99.99,,,-99.99,dwt +perl,2013-03-09 05:39:00,
2013-03-08 21:44:00,28.6,27.9,25.08,West,281,17.0,-999.0,97,-99.99,,,-99.99,dwt +perl,2013-03-09 05:44:00,
2013-03-08 21:49:00,28.6,27.9,25.08,West,272,21.0,-999.0,97,-99.99,,,-99.99,dwt +perl,2013-03-09 05:49:00,
2013-03-08 21:54:00,28.4,27.6,25.08,West,259,15.0,-999.0,97,-99.99,,,-99.99,dwt +perl,2013-03-09 05:54:00,
2013-03-08 21:59:00,28.3,27.5,25.08,WSW,240,18.0,-999.0,97,-99.99,,,-99.99,dwt +perl,2013-03-09 05:59:00,
2013-03-08 22:04:00,28.2,27.5,25.08,WSW,250,21.0,-999.0,97,-99.99,,,-99.99,dwt +perl,2013-03-09 06:04:00,
2013-03-08 22:09:00,28.3,27.5,25.08,WNW,284,12.0,-999.0,97,-99.99,,,-99.99,dwt +perl,2013-03-09 06:09:00,
2013-03-08 22:14:00,28.4,27.6,25.08,SW,235,18.0,-999.0,97,-99.99,,,-99.99,dwt +perl,2013-03-09 06:14:00,
2013-03-08 22:19:00,28.5,27.8,25.09,West,259,16.0,-999.0,97,-99.99,,,-99.99,dwt +perl,2013-03-09 06:19:00,
2013-03-08 22:24:00,28.3,27.5,25.08,West,278,14.0,-999.0,97,-99.99,,,-99.99,dwt +perl,2013-03-09 06:24:00,
2013-03-08 22:29:00,28.0,27.3,25.09,West,278,14.0,-999.0,97,-99.99,,,-99.99,dwt +perl,2013-03-09 06:29:00,
2013-03-08 22:34:00,28.0,27.0,25.09,West,277,20.0,-999.0,96,-99.99,,,-99.99,dwt +perl,2013-03-09 06:34:00,
2013-03-08 22:39:00,27.8,26.8,25.08,West,277,17.0,-999.0,96,-99.99,,,-99.99,dwt +perl,2013-03-09 06:39:00,
2013-03-08 22:44:00,27.6,26.6,25.09,WSW,249,12.0,-999.0,96,-99.99,,,-99.99,dwt +perl,2013-03-09 06:44:00,
2013-03-08 22:49:00,27.7,26.7,25.09,West,264,18.0,-999.0,96,-99.99,,,-99.99,dwt +perl,2013-03-09 06:49:00,
2013-03-08 22:54:00,27.7,26.7,25.08,West,276,15.0,-999.0,96,-99.99,,,-99.99,dwt +perl,2013-03-09 06:54:00,
2013-03-08 22:59:00,27.9,26.9,25.08,West,276,21.0,-999.0,96,-99.99,,,-99.99,dwt +perl,2013-03-09 06:59:00,
2013-03-08 23:04:00,27.7,26.7,25.08,WSW,249,16.0,-999.0,96,-99.99,,,-99.99,dwt +perl,2013-03-09 07:04:00,
2013-03-08 23:09:00,27.7,26.7,25.09,WSW,256,16.0,-999.0,96,-99.99,,,-99.99,dwt +perl,2013-03-09 07:09:00,
2013-03-08 23:14:00,27.5,26.5,25.08,West,274,16.0,-999.0,96,-99.99,,,-99.99,dwt +perl,2013-03-09 07:14:00,
2013-03-08 23:19:00,27.4,26.4,25.08,West,274,14.0,-999.0,96,-99.99,,,-99.99,dwt +perl,2013-03-09 07:19:00,
2013-03-08 23:24:00,27.5,26.5,25.08,West,274,12.0,-999.0,96,-99.99,,,-99.99,dwt +perl,2013-03-09 07:24:00,
2013-03-08 23:29:00,27.6,26.6,25.09,WSW,258,17.0,-999.0,96,-99.99,,,-99.99,dwt +perl,2013-03-09 07:29:00,
2013-03-08 23:34:00,27.8,26.8,25.09,West,273,16.0,-999.0,96,-99.99,,,-99.99,dwt +perl,2013-03-09 07:34:00,
2013-03-08 23:39:00,27.7,26.7,25.09,West,273,12.0,-999.0,96,-99.99,,,-99.99,dwt +perl,2013-03-09 07:39:00,
2013-03-08 23:44:00,27.6,26.6,25.09,West,273,10.0,-999.0,96,-99.99,,,-99.99,dwt +perl,2013-03-09 07:44:00,
2013-03-08 23:49:00,27.6,26.9,25.09,West,261,14.0,-999.0,97,-99.99,,,-99.99,dwt +perl,2013-03-09 07:49:00,
2013-03-08 23:54:00,27.6,26.6,25.10,West,260,10.0,-999.0,96,-99.99,,,-99.99,dwt +perl,2013-03-09 07:54:00,
2013-03-08 23:59:00,27.6,26.6,25.10,West,272,11.0,-999.0,96,-99.99,,,-99.99,dwt +perl,2013-03-09 07:59:00,